User: anonymous   Login
Location: Camp Creek
(33.9000°N, 111.8167°W)
Time: 21:18:39
(UTC-07:00)
Language:

Cosmos 1656 - Orbit

View from above orbital plane
View from above orbital plane
View from above satellite
View from above satellite

Ground track
Ground track

The orbit data is extracted from the following two-line orbital elements,

1 15755U 85042A   14329.86499987  .00000012  00000-0  27474-4 0  9105
2 15755 071.1107 171.6245 0033658 060.3342 300.1128 14.20317966528022
Epoch (UTC): 25 November 2014 20:45:35
Eccentricity: 0.0033658
inclination: 71.1107°
perigee height: 800 km
apogee height: 848 km
right ascension of ascending node: 171.6245°
argument of perigee: 60.3342°
revolutions per day: 14.20317966
mean anomaly at epoch: 300.1128°
orbit number at epoch: 52802

The dashed part of the orbit path shows where the satellite is in the earth's shadow,  

DLR